User: anonymous   Login
Location: Newark
(34.1333°N, 7.9667°W)
Time: 00:30:02
(UTC+00:00)
Language:

DOVE 4 - Orbit

View from above orbital plane
View from above orbital plane
View from above satellite
View from above satellite

Ground track
Ground track

The orbit data is extracted from the following two-line orbital elements,

1 39430U 13066Q   24201.78204972  .00003900  00000-0  64688-3 0  9990
2 39430  97.7288  74.1917 0140329 148.6698 212.2964 14.64371437567815
Epoch (UTC): 19 July 2024 18:46:09
Eccentricity: 0.0140329
inclination: 97.7288°
perigee height: 580 km
apogee height: 778 km
right ascension of ascending node: 74.1917°
argument of perigee: 148.6698°
revolutions per day: 14.64371437
mean anomaly at epoch: 212.2964°
orbit number at epoch: 56781

The dashed part of the orbit path shows where the satellite is in the earth's shadow,  

DLR